Regional Weather Roundup
Issued by NWS

Home | Current Version | Previous Version | Graphics & Text | Print | Product List | Glossary On
Versions: 1 2 3 4 5 6 7 8 9 10 11 12 13 14 15 16 17 18 19 20 21 22 23 24 25 26 27 28 29 30 31 32 33 34 35 36 37 38 39 40 41 42 43 44 45 46 47 48 49 50
756
ASUS44 KLIX 231405
RWRLA
LOUISIANA WEATHER ROUNDUP
NATIONAL WEATHER SERVICE NEW ORLEANS LA
900 AM CDT SAT AUG 23 2014

NOTE: "FAIR" INDICATES FEW OR NO CLOUDS BELOW 12,000 FEET WITH NO
      SIGNIFICANT WEATHER AND/OR OBSTRUCTIONS TO VISIBILITY.
      SKY/WX - SKY CONDITION AND SIGNIFICANT WEATHER.
      TMP - AIR TEMPERATURE.    DP   - DEWPOINT TEMPERATURE.
      RH  - RELATIVE HUMIDITY.  PRES - PRESSURE.
      HX  - HEAT INDEX.         WCI  - WIND CHILL INDEX.

*  THESE STATIONS ARE NOT NWS OR FAA STATIONS AND ARE NOT UNDER
   NWS QUALITY CONTROL.

LAZ040-048-061>063-065-066-069-231500-
SOUTHEAST LOUISIANA

CITY           SKY/WX    TMP DP  RH WIND       PRES   REMARKS
N.O. AUDUBON     N/A     88  78  73 MISG        N/A  HX 102
N.O. INTL ARPT MOSUNNY   86  76  71 N9        30.04S HX  96
N.O. LAKEFRONT SUNNY     86  77  74 N10       30.04S HX  97
N.O. DOWNTOWN* FAIR      86  73  66 N5        30.05R
SLIDELL        SUNNY     85  75  72 N6        30.03S
BATON ROUGE    SUNNY     84  76  76 N6        30.05R
BOOTHVILLE     SUNNY     86  78  77 NW9       30.04S HX  98
BELLE CHASSE   MOSUNNY   87  75  67 NW7       30.03S HX  96
BOGALUSA*      FAIR      84  74  72 N5        30.06R
GALLIANO*      NOT AVBL
NEW ROADS*     FAIR      82  77  83 NW3       30.05S
GONZALES*      FAIR      84  80  87 NW6       30.04S HX  96
HAMMOND*       SUNNY     86  73  66 N5        30.06S
HOUMA*         SUNNY     84  75  74 N9        30.04S
PORT FOURCHON* SUNNY     88  77  70 N9        30.06R HX 100

$$

LAZ041-044-053-054-231500-
SOUTHWEST LOUISIANA

CITY           SKY/WX    TMP DP  RH WIND       PRES   REMARKS
LAKE CHARLES   SUNNY     83  78  85 CALM      30.04R
LAFAYETTE      SUNNY     85  77  77 N3        30.05R HX  95
PATTERSON      SUNNY     84  79  84 N6        30.07S HX  96
SALT POINT       N/A     87  79  76 NW5       30.03S HX 101
NEW IBERIA     SUNNY     85  78  80 N3        30.05S HX  96
CHENAULT AIRPK SUNNY     82  75  78 CALM      30.05S

$$

LAZ027-028-231500-
CENTRAL LOUISIANA

CITY           SKY/WX    TMP DP  RH WIND       PRES   REMARKS
FORT POLK      SUNNY     81  76  84 NW5       30.06R
ALEXANDRIA INT SUNNY     81  75  82 W6        30.04R
ALEXANDRIA     SUNNY     84  76  76 W5        30.05R

$$

LAZ001-002-231500-
NORTHWEST LOUISIANA

CITY           SKY/WX    TMP DP  RH WIND       PRES   REMARKS
SHREVEPORT     SUNNY     81  74  79 SW8       30.04R
BARKSDALE AFB  SUNNY     81  73  77 SW5       30.04S
DTN SHREVEPORT SUNNY     80  74  81 W5        30.04R

$$

LAZ014-016-231500-
NORTHEAST LOUISIANA

CITY           SKY/WX    TMP DP  RH WIND       PRES   REMARKS
MONROE         SUNNY     82  74  76 W3        30.05S
TALLULAH       SUNNY     83  75  77 CALM      30.05S

$$




USA.gov is the U.S. government's official web portal to all federal, state and local government web resources and services.